[[{"header":{"parameterUnit":"m.s-1","parameterCategory":1,"la1":30.2992,"la2":30.254,"lo1":-89.0895,"lo2":-89.0443,"dy":0.0025,"dx":0.0025,"nx":19,"ny":19,"refTime":"2026-03-16T21:00:00:Z","depth":0,"parameterNumber":2,"parameterNumberName":"U-component_of_WINDS"},"data":[0,0,0,-4.0102,-4.0104,-4.0199,-4.02,-4.0337,-4.0338,0,0,0,0,0,0,0,0,0,0,0,-4.0082,-4.0083,-4.0102,-4.0104,-4.0199,-4.02,-4.0336,-4.0338,0,0,0,0,0,0,0,0,0,0,0,-4.0082,-4.0083,-4.0085,-4.0105,-4.0199,-4.02,-4.0336,-4.0259,0,0,0,0,0,0,0,0,0,0,-4.0164,-4.0154,-4.0083,-4.0085,-4.0105,-4.0199,-4.02,-4.0255,-4.0264,-4.03,0,-4.0333,0,-4.0338,-4.0348,-4.0348,0,0,0,-4.0098,-4.0147,-4.0165,-4.0085,-4.0106,-4.0199,-4.0155,-4.026,-4.027,-4.0311,-4.0335,-4.034,-4.034,-4.0349,-4.035,-4.0578,-4.0579,0,0,-4.0093,-4.0104,-4.0158,-4.0172,-4.0157,-4.0152,-4.0158,-4.0265,-4.0292,-4.0336,-4.0343,-4.0343,-4.035,-4.0351,-4.0577,-4.0578,0,0,0,-4.0082,-4.0101,-4.0116,-4.0166,-4.0182,-4.0155,-4.0162,-4.0287,-4.0291,-4.0344,-4.0344,-4.0351,-4.0353,-4.0575,-4.0577,-4.0656,0,0,0,-4.0078,-4.0094,-4.0114,-4.0121,-4.0181,-4.0236,-4.0182,-4.0284,-4.0296,-4.0343,-4.0351,-4.0354,-4.0574,-4.0576,-4.065,-4.0691,0,0,0,-4.0073,-4.0093,-4.011,-4.0122,-4.0163,-4.0234,-4.0244,-4.0286,-4.0296,-4.0349,-4.0354,-4.0573,-4.0576,-4.0645,-4.0683,-4.0755,0,0,0,-4.0071,-4.0178,-4.0112,-4.0232,-4.0162,-4.0282,-4.0243,-4.0331,-4.0386,-4.0352,-4.0574,-4.0577,-4.0644,-4.0678,-4.075,-4.0817,-4.0846,0,0,-4.0212,-4.0195,-4.0265,-4.0209,-4.0342,-4.0266,-4.0412,-4.0451,-4.0446,-4.0535,-4.054,-4.0652,-4.0682,-4.0754,-4.1006,-4.1029,0,0,0,-4.0314,-4.0364,-4.0397,-4.045,-4.0482,-4.0514,-4.053,-4.0545,-4.0619,-4.0493,-4.0697,-4.0715,-4.0756,-4.0788,-4.0808,-4.0843,-4.0592,-4.0592,-4.0592,-4.053,-4.0518,-4.0633,-4.0633,-4.0685,-4.07,-4.0741,-4.0764,-4.0736,-4.0785,-4.0811,-4.0965,-4.1003,-4.1018,-4.1055,-4.0846,-4.0846,-4.0846,-4.0847,-4.0736,-4.0806,-4.0768,-4.0866,-4.0853,-4.0935,-4.0956,-4.0934,-4.1009,-4.0944,-4.098,-4.091,-4.1044,-4.1075,-4.0852,-4.0851,-4.0851,-4.085,-4.085,-4.0876,-4.0908,-4.0924,-4.1,-4.106,-4.1056,-4.1131,-4.1116,-4.1103,-4.1139,-4.1166,-4.1164,-4.1161,-4.1153,-4.1153,-4.1154,-4.1154,-4.1155,-4.1155,-4.1015,-4.1031,-4.1095,-4.1141,-4.1173,-4.1214,-4.1233,-4.1265,-4.1296,-4.128,-4.128,-4.1249,-4.1059,-4.1012,-4.1163,-4.1162,-4.1161,-4.116,-4.1159,-4.1228,-4.1178,-4.1278,-4.131,-4.1363,-4.1424,-4.1405,-4.1472,-4.1496,-4.1534,-4.1495,-4.1357,-4.1339,-4.1323,-4.1284,-4.1497,-4.1497,-4.1497,-4.1497,-4.1347,-4.1336,-4.1435,-4.1489,-4.154,-4.1534,-4.1648,-4.1664,-4.1673,-4.1688,-4.1655,-4.1602,-4.1586,-4.1577,-4.1556,-4.1519,-4.1787,-4.1787,-4.1788,-4.1478,-4.1472,-4.1571,-4.1579,-4.162,-4.1655,-4.1762,-4.1826,-4.1826,-4.1799,-4.1699,-4.1687,-4.1601,-4.1573,-4.1544,-4.1511,-4.1443,0,0]},{"header":{"parameterUnit":"m.s-1","parameterCategory":1,"la1":30.2992,"la2":30.254,"lo1":-89.0895,"lo2":-89.0443,"dy":0.0025,"dx":0.0025,"nx":19,"ny":19,"refTime":"2026-03-16T21:00:00:Z","depth":0,"parameterNumber":3,"parameterNumberName":"V-component_of_WINDS"},"data":[0,0,0,-0.7058,-0.7058,-0.709,-0.709,-0.7131,-0.7132,0,0,0,0,0,0,0,0,0,0,0,-0.7049,-0.7049,-0.7058,-0.7058,-0.709,-0.709,-0.7131,-0.7132,0,0,0,0,0,0,0,0,0,0,0,-0.7049,-0.7049,-0.705,-0.7059,-0.709,-0.709,-0.7131,-0.7107,0,0,0,0,0,0,0,0,0,0,-0.7077,-0.7069,-0.7049,-0.705,-0.7059,-0.7089,-0.709,-0.7106,-0.7109,-0.7118,0,-0.7126,0,-0.7129,-0.7135,-0.7135,0,0,0,-0.7058,-0.7067,-0.7075,-0.705,-0.7059,-0.7089,-0.7075,-0.7107,-0.711,-0.7121,-0.7126,-0.7128,-0.713,-0.7135,-0.7135,-0.7188,-0.7188,0,0,-0.7056,-0.7055,-0.7073,-0.7077,-0.7072,-0.7074,-0.7076,-0.7109,-0.7115,-0.7127,-0.7129,-0.7131,-0.7135,-0.7135,-0.7188,-0.7188,0,0,0,-0.7052,-0.7054,-0.7061,-0.7075,-0.7081,-0.7075,-0.7078,-0.7113,-0.7116,-0.7129,-0.7131,-0.7135,-0.7136,-0.7187,-0.7188,-0.7199,0,0,0,-0.7051,-0.7051,-0.706,-0.706,-0.708,-0.7097,-0.7081,-0.7113,-0.7117,-0.7131,-0.7135,-0.7136,-0.7187,-0.7188,-0.7198,-0.7205,0,0,0,-0.7047,-0.7051,-0.7056,-0.706,-0.7073,-0.7097,-0.7101,-0.7114,-0.7118,-0.7135,-0.7136,-0.7187,-0.7187,-0.7197,-0.7203,-0.7218,0,0,0,-0.7043,-0.7066,-0.7056,-0.7083,-0.7073,-0.7104,-0.7101,-0.7124,-0.7139,-0.7136,-0.7187,-0.7188,-0.7197,-0.7202,-0.7217,-0.7229,-0.7234,0,0,-0.7072,-0.707,-0.7086,-0.7077,-0.7109,-0.7099,-0.7133,-0.7148,-0.7151,-0.7176,-0.7177,-0.7198,-0.7203,-0.7217,-0.7264,-0.7268,0,0,0,-0.7094,-0.7106,-0.7114,-0.7129,-0.714,-0.7151,-0.7161,-0.7167,-0.7187,-0.7163,-0.7208,-0.7211,-0.7219,-0.7225,-0.7228,-0.7235,-0.7191,-0.719,-0.719,-0.7134,-0.7136,-0.7162,-0.7167,-0.7181,-0.719,-0.7202,-0.7211,-0.7209,-0.722,-0.7227,-0.7255,-0.7262,-0.7264,-0.7272,-0.7234,-0.7234,-0.7234,-0.7234,-0.7176,-0.7192,-0.7188,-0.7212,-0.7213,-0.7234,-0.7244,-0.7242,-0.7261,-0.725,-0.7257,-0.7245,-0.7269,-0.7275,-0.7235,-0.7235,-0.7235,-0.7235,-0.7234,-0.7202,-0.7209,-0.7215,-0.7235,-0.7251,-0.7255,-0.7273,-0.7274,-0.7276,-0.7283,-0.729,-0.729,-0.7289,-0.7286,-0.7286,-0.7287,-0.7287,-0.7287,-0.7287,-0.7226,-0.7232,-0.7247,-0.726,-0.7269,-0.7281,-0.729,-0.7299,-0.7309,-0.7309,-0.7309,-0.7305,-0.7271,-0.7262,-0.7288,-0.7288,-0.7288,-0.7288,-0.7288,-0.7267,-0.7257,-0.728,-0.7288,-0.7304,-0.7319,-0.732,-0.7338,-0.7345,-0.7354,-0.7349,-0.7323,-0.7322,-0.7319,-0.7311,-0.7349,-0.7349,-0.7349,-0.7349,-0.7287,-0.7286,-0.7309,-0.7323,-0.7336,-0.7339,-0.7365,-0.7372,-0.7379,-0.7383,-0.7378,-0.7368,-0.7366,-0.7365,-0.7362,-0.7355,-0.7402,-0.7402,-0.7402,-0.7312,-0.7312,-0.7334,-0.7339,-0.7351,-0.7362,-0.7385,-0.7401,-0.7407,-0.7405,-0.7387,-0.7385,-0.7369,-0.7364,-0.7361,-0.7355,-0.7342,0,0]}]]